TimeCST,TemperatureF,Dew PointF,Humidity,Sea Level PressureIn,VisibilityMPH,Wind Direction,Wind SpeedMPH,Gust SpeedMPH,PrecipitationIn,Events,Conditions,WindDirDegrees,DateUTC
12:35 AM,37.4,21.2,52,30.23,10.0,South,18.4,24.2,N/A,,Overcast,190,2012-12-31 06:35:00
12:55 AM,35.6,24.8,65,30.22,10.0,South,12.7,-,N/A,,Overcast,180,2012-12-31 06:55:00
1:15 AM,33.8,26.6,75,30.21,7.0,South,8.1,-,0.03,,Overcast,180,2012-12-31 07:15:00
1:35 AM,33.8,26.6,75,30.22,8.0,South,6.9,-,0.05,,Overcast,180,2012-12-31 07:35:00
1:55 AM,33.8,26.6,75,30.22,6.0,SSE,8.1,-,0.07,,Overcast,150,2012-12-31 07:55:00
2:15 AM,33.8,26.6,75,30.21,7.0,SSE,9.2,-,0.02,,Overcast,150,2012-12-31 08:15:00
2:35 AM,33.8,28.4,81,30.21,7.0,SSE,6.9,-,0.04,,Overcast,160,2012-12-31 08:35:00
2:55 AM,33.8,28.4,81,30.21,8.0,SSE,4.6,-,0.06,,Overcast,160,2012-12-31 08:55:00
3:15 AM,33.8,28.4,81,30.21,8.0,South,5.8,-,0.02,,Overcast,180,2012-12-31 09:15:00
3:35 AM,33.8,28.4,81,30.21,8.0,South,6.9,-,0.04,,Overcast,190,2012-12-31 09:35:00
4:15 AM,33.8,28.4,81,30.20,8.0,South,8.1,-,0.07,,Overcast,190,2012-12-31 10:15:00
4:35 AM,33.8,28.4,81,30.18,7.0,South,6.9,-,0.10,,Overcast,180,2012-12-31 10:35:00
4:55 AM,33.8,28.4,81,30.18,9.0,South,5.8,-,0.11,,Overcast,170,2012-12-31 10:55:00
5:15 AM,33.8,28.4,81,30.19,7.0,South,5.8,-,0.03,,Overcast,170,2012-12-31 11:15:00
5:35 AM,33.8,28.4,81,30.18,5.0,SSE,6.9,-,0.05,,Overcast,150,2012-12-31 11:35:00
5:55 AM,33.8,28.4,81,30.18,7.0,SSE,5.8,-,0.07,,Overcast,150,2012-12-31 11:55:00
6:15 AM,33.8,28.4,81,30.17,7.0,SE,6.9,-,0.01,,Overcast,140,2012-12-31 12:15:00
6:55 AM,33.8,28.4,81,30.15,6.0,SE,6.9,-,0.04,,Overcast,130,2012-12-31 12:55:00
7:15 AM,33.8,28.4,81,30.14,7.0,SE,5.8,-,0.01,,Overcast,140,2012-12-31 13:15:00
7:35 AM,33.8,28.4,81,30.14,5.0,SE,3.5,-,0.02,,Overcast,140,2012-12-31 13:35:00
7:55 AM,33.8,28.4,81,30.14,4.0,SE,4.6,-,0.03,,Overcast,130,2012-12-31 13:55:00
8:35 AM,33.8,28.4,81,30.14,3.0,ESE,3.5,-,0.03,,Overcast,120,2012-12-31 14:35:00
8:55 AM,33.8,28.4,81,30.13,2.5,ESE,6.9,-,0.05,,Overcast,120,2012-12-31 14:55:00
9:15 AM,33.8,28.4,81,30.12,3.0,ESE,6.9,-,0.02,,Overcast,110,2012-12-31 15:15:00
9:55 AM,33.8,28.4,81,30.16,1.8,Calm,Calm,-,0.08,,Overcast,0,2012-12-31 15:55:00
10:15 AM,35.6,30.2,81,30.15,1.8,East,3.5,-,0.05,,Overcast,90,2012-12-31 16:15:00
10:35 AM,35.6,30.2,81,30.14,2.5,ESE,6.9,-,0.08,,Overcast,120,2012-12-31 16:35:00
11:15 AM,35.6,30.2,81,30.12,2.5,East,4.6,-,N/A,,Overcast,100,2012-12-31 17:15:00
11:35 AM,35.6,30.2,81,30.12,1.0,Calm,Calm,-,N/A,,Overcast,0,2012-12-31 17:35:00
11:55 AM,35.6,30.2,81,30.12,1.8,Calm,Calm,-,N/A,,Overcast,0,2012-12-31 17:55:00
12:15 PM,35.6,30.2,81,30.08,1.5,ESE,5.8,-,N/A,,Overcast,110,2012-12-31 18:15:00
12:35 PM,35.6,30.2,81,30.06,3.0,SE,8.1,-,N/A,,Overcast,130,2012-12-31 18:35:00
12:55 PM,35.6,30.2,81,30.05,4.0,SE,8.1,-,0.05,,Overcast,130,2012-12-31 18:55:00
1:15 PM,35.6,30.2,81,30.04,4.0,SE,6.9,-,N/A,,Overcast,140,2012-12-31 19:15:00
1:35 PM,35.6,30.2,81,30.02,7.0,SE,9.2,-,0.01,,Overcast,130,2012-12-31 19:35:00
2:16 PM,35.6,32.0,87,30.00,3.0,ESE,8.1,-,N/A,,Overcast,120,2012-12-31 20:16:00
3:15 PM,37.4,32.0,81,29.99,-9999.0,ESE,4.6,-,N/A,,Overcast,120,2012-12-31 21:15:00
3:35 PM,37.4,32.0,81,29.99,-9999.0,ESE,5.8,-,N/A,,Overcast,120,2012-12-31 21:35:00
4:15 PM,37.4,33.8,87,29.99,-9999.0,ESE,4.6,-,N/A,,Overcast,110,2012-12-31 22:15:00
4:35 PM,37.4,33.8,87,29.99,-9999.0,ESE,3.5,-,N/A,,Overcast,110,2012-12-31 22:35:00
4:55 PM,37.4,33.8,87,30.00,-9999.0,Calm,Calm,-,N/A,,Overcast,0,2012-12-31 22:55:00
5:55 PM,37.4,33.8,87,30.00,-9999.0,Calm,Calm,-,N/A,,Overcast,0,2012-12-31 23:55:00
6:15 PM,37.4,33.8,87,30.00,-9999.0,Calm,Calm,-,N/A,,Overcast,0,2013-01-01 00:15:00
6:35 PM,37.4,33.8,87,30.01,-9999.0,Calm,Calm,-,N/A,,Overcast,0,2013-01-01 00:35:00
7:15 PM,37.4,33.8,87,30.02,-9999.0,Calm,Calm,-,N/A,,Overcast,0,2013-01-01 01:15:00
7:35 PM,37.4,33.8,87,30.02,-9999.0,WSW,4.6,-,N/A,,Overcast,240,2013-01-01 01:35:00
8:35 PM,37.4,33.8,87,30.03,-9999.0,SSW,5.8,-,N/A,,Overcast,210,2013-01-01 02:35:00
8:55 PM,37.4,33.8,87,30.03,-9999.0,WSW,4.6,-,N/A,,Overcast,240,2013-01-01 02:55:00
9:35 PM,37.4,33.8,87,30.03,-9999.0,West,5.8,-,N/A,,Overcast,270,2013-01-01 03:35:00
10:15 PM,37.4,33.8,87,30.05,-9999.0,West,4.6,-,N/A,,Overcast,280,2013-01-01 04:15:00
10:35 PM,37.4,33.8,87,30.05,-9999.0,West,4.6,-,N/A,,Overcast,280,2013-01-01 04:35:00
11:15 PM,37.4,33.8,87,30.06,-9999.0,WNW,4.6,-,N/A,,Overcast,290,2013-01-01 05:15:00
11:35 PM,37.4,33.8,87,30.07,-9999.0,WNW,6.9,-,N/A,,Overcast,290,2013-01-01 05:35:00
11:55 PM,37.4,33.8,87,30.06,-9999.0,NW,5.8,-,N/A,,Overcast,310,2013-01-01 05:55:00